Regional Weather Roundup
Issued by NWS

Home | Current Version | Previous Version | Graphics & Text | Print | Product List | Glossary On
Versions: 1 2 3 4 5 6 7 8 9 10 11 12 13 14 15 16 17 18 19 20 21 22 23 24 25 26 27 28 29 30 31 32 33 34 35 36 37 38 39 40 41 42 43 44 45 46 47 48 49 50
353
ASUS44 KJAN 221910
RWRMS

MISSISSIPPI HOURLY WEATHER ROUNDUP
NATIONAL WEATHER SERVICE JACKSON MS
200 PM CDT WED OCT 22 2014

NOTE: "FAIR: INDICATES FEW OR NO CLOUDS BELOW 12,000 FEET WITH NO
SIGNIFICANT WEATHER AND/OR OBSTRUCTIONS TO VISIBILITY.

MSZ001>002-007>008-010>013-018>021-025>028-034>036-222000-
NORTHWEST MISSISSIPPI

CITY           SKY/WX    TMP DP  RH WIND       PRES   REMARKS
CLARKSDALE     FAIR      68  45  42 N8        30.19F
CLEVELAND      FAIR      70  47  44 N8G18     30.17F
GREENWOOD      SUNNY     71  44  37 NE7       30.15F
GREENVILLE     SUNNY     72  46  39 NE12G18   30.15F
GRENADA          N/A    N/A N/A N/A MISG        N/A
OLIVE BRANCH   SUNNY     64  43  45 NE9       30.20F
OXFORD         FAIR      64  41  42 NE10      30.20S
TUNICA         CLEAR     66  43  42 NE5       30.20F
$$

MSZ003>006-009-014>017-022>024-029>033-037>039-222000-
NORTHEAST MISSISSIPPI

CITY           SKY/WX    TMP DP  RH WIND       PRES   REMARKS
COLUMBUS AFB   SUNNY     68  43  40 N12       30.15F
CORINTH        FAIR      66  39  37 VRB6G15   30.19F
GOLDN TRIANGLE SUNNY     68  45  42 NE9       30.14F
STARKVILLE     FAIR      68  43  40 N8        30.14F
TUPELO         SUNNY     66  43  43 VRB7      30.17F
$$

MSZ040-058-222000-
CENTRAL MISSISSIPPI

CITY           SKY/WX    TMP DP  RH WIND       PRES   REMARKS
JACKSON INTL   SUNNY     73  46  38 N14       30.11F
JACKSON HAWKNS SUNNY     74  47  38 N7        30.11F
MERIDIAN KEY   SUNNY     72  44  36 N13       30.10F
MERIDIAN NAS   SUNNY     72  42  34 NE9G18    30.12F
RAYMOND        FAIR      73  68  83 NW7       30.11F
VICKSBURG      SUNNY     76  50  40 N15       30.12F
$$

MSZ059>079-222000-
SOUTH MISSISSIPPI

CITY           SKY/WX    TMP DP  RH WIND       PRES   REMARKS
BROOKHAVEN     FAIR      75  46  35 N10       30.11F
HATTIESBURG    SUNNY     77  50  38 N7        30.07F
MCCOMB         SUNNY     76  46  34 NE9       30.08F
NATCHEZ        SUNNY     75  52  43 N10       30.11F
PINE BELT      SUNNY     75  48  38 NE8       30.10F
$$

MSZ080>082-222000-
COASTAL MISSISSIPPI

CITY           SKY/WX    TMP DP  RH WIND       PRES   REMARKS
BAY ST LOUIS   SUNNY     79  43  27 NE8       30.04
BILOXI         SUNNY     79  51  38 N8        30.03F
PASCAGOULA     SUNNY     78  50  37 NE6       30.03F
GULFPORT       SUNNY     78  50  37 N7        30.03F
$$



USA.gov is the U.S. government's official web portal to all federal, state and local government web resources and services.